Toms River, NJ

1:04 PM EDT on October 15, 2019 (GMT -0400)
Miller

Weather History for KMJX - August, 2019

Change the Weather History Date:

Monday, August 19, 2019

  Actual Average Record
Temperature  
Mean Temperature 84 °F -  
Max Temperature 95 °F 82 °F 93 °F (1991)
Min Temperature 72 °F 60 °F 46 °F (1963)
Cooling Degree Days 19    
Growing Degree Days 34 (Base 50)    
Moisture  
Dew Point 75 °F    
Average Humidity 68    
Maximum Humidity 89    
Minimum Humidity 58    
Precipitation  
Precipitation 0.00 in - - ()
Sea Level Pressure  
Sea Level Pressure 29.99 in    
Wind  
Wind Speed 5 mph (SSW)    
Max Wind Speed 16 mph    
Max Gust Speed 23 mph    
Visibility 7 miles    
Events Fog , Rain , Thunderstorm    
Averages and records for this station are not official NWS values.
T = Trace of Precipitation, MM = Missing Value Source: NWS Daily Summary

Daily Weather History Graph

Daily Weather History Graph

Search for Another Location

Airport or City:

Astronomy

Aug. 19, 2019 Rise Set
Actual Time 6:12 AM EDT 7:48 PM EDT
Civil Twilight 5:43 AM EDT 8:17 PM EDT
Nautical Twilight 5:09 AM EDT 8:51 PM EDT
Astronomical Twilight 4:32 AM EDT 9:28 PM EDT
Moon 10:08 PM EDT (8/19) 9:51 AM EDT (8/19)
Length of Visible Light 14h 33m
Length of Day
13h 35m
Waning Gibbous, 85% of the Moon is Illuminated
Aug 19
Waning Gibbous
Aug 23
Last Quarter
Aug 30
New
Sep 5
First Quarter
Sep 14
Full

Hourly Weather History & Observations

Time (EDT) Temp. Heat Index Dew Point Humidity Pressure Visibility Wind Dir Wind Speed Gust Speed Precip Events Conditions
12:21 AM - - - N/A% 29.98 in 10.0 mi SE 3.5 mph - N/A   Mostly Cloudy
12:33 AM - - - N/A% 29.98 in 10.0 mi SSE 5.8 mph - N/A   Partly Cloudy
12:56 AM - - - N/A% 29.98 in 10.0 mi South 4.6 mph - N/A   Partly Cloudy
1:13 AM - - - N/A% 29.97 in 10.0 mi South 3.5 mph - N/A   Mostly Cloudy
1:34 AM - - - N/A% - 0.8 mi Calm Calm - N/A   Overcast
1:45 AM - - - N/A% 29.98 in 0.5 mi South 3.5 mph - N/A Fog Fog
1:56 AM - - - N/A% 29.98 in 0.8 mi Calm Calm - N/A   Overcast
2:21 AM - - - N/A% 29.97 in 0.5 mi SE 3.5 mph - N/A Fog Fog
2:28 AM - - - N/A% 29.97 in 1.0 mi SE 4.6 mph - N/A   Overcast
2:30 AM - - - N/A% 29.97 in 2.0 mi SE 4.6 mph - N/A   Overcast
2:42 AM - - - N/A% 29.96 in 1.2 mi SE 8.1 mph - N/A   Overcast
2:56 AM - - - N/A% 29.96 in 1.2 mi South 4.6 mph - N/A   Overcast
3:09 AM - - - N/A% 29.96 in 3.0 mi South 3.5 mph - N/A   Overcast
3:32 AM - - - N/A% 29.97 in 2.0 mi SW 3.5 mph - N/A   Overcast
3:56 AM - - - N/A% 29.99 in 10.0 mi West 6.9 mph - N/A   Overcast
4:03 AM - - - N/A% 29.99 in 10.0 mi WSW 5.8 mph - N/A   Overcast
4:56 AM - - - N/A% 29.99 in 10.0 mi SW 4.6 mph - N/A   Overcast
5:56 AM - - - N/A% 30.01 in 10.0 mi SSW 4.6 mph - N/A   Overcast
6:42 AM - - - N/A% 30.01 in 1.8 mi SW 3.5 mph - N/A   Overcast
6:45 AM - - - N/A% 30.01 in 1.0 mi SSW 4.6 mph - N/A   Overcast
6:53 AM - - - N/A% 30.01 in 0.5 mi SSW 4.6 mph - N/A Fog Fog
6:54 AM - - - N/A% 30.01 in 0.5 mi SSW 4.6 mph - N/A Fog Fog
7:28 AM - - - N/A% 30.01 in 0.8 mi SW 4.6 mph - N/A   Overcast
7:35 AM - - - N/A% 30.01 in 1.2 mi Calm Calm - N/A   Overcast
7:42 AM - - - N/A% 30.01 in 3.0 mi SW 4.6 mph - N/A   Overcast
7:56 AM - - - N/A% 30.02 in 4.0 mi SSW 5.8 mph - N/A   Haze
8:30 AM - - - N/A% 30.01 in 10.0 mi SSW 5.8 mph - N/A   Overcast
8:51 AM 80.6 °F - - N/A% 30.00 in 10.0 mi SW 6.9 mph - N/A   Mostly Cloudy
8:56 AM 81.0 °F - - N/A% 30.01 in 10.0 mi SW 5.8 mph - N/A   Mostly Cloudy
9:11 AM 82.4 °F 92.4 °F 78.8 °F 89% 30.01 in 10.0 mi SW 4.6 mph - N/A   Partly Cloudy
9:56 AM 86.0 °F 96.9 °F 77.0 °F 74% 30.02 in 10.0 mi West 6.9 mph - N/A   Clear
10:56 AM 90.0 °F 101.3 °F 75.9 °F 63% 30.01 in 9.0 mi SSW 9.2 mph - N/A   Clear
11:56 AM 93.0 °F 106.7 °F 77.0 °F 59% 30.00 in 10.0 mi SW 10.4 mph - N/A   Partly Cloudy
12:56 PM 93.9 °F 108.4 °F 77.0 °F 58% 29.99 in 10.0 mi SSW 6.9 mph - N/A   Mostly Cloudy
1:20 PM 93.2 °F 110.2 °F 78.8 °F 63% 29.98 in 10.0 mi WSW 10.4 mph - N/A Thunderstorm Mostly Cloudy
1:30 PM 93.2 °F 107.2 °F 77.0 °F 59% 29.98 in 10.0 mi Variable 6.9 mph - N/A Thunderstorm Mostly Cloudy
1:56 PM 95.0 °F 111.4 °F 78.1 °F 58% 29.97 in 10.0 mi WSW 9.2 mph - N/A Thunderstorm Scattered Clouds
2:00 PM 95.0 °F 112.2 °F 78.8 °F 59% 29.97 in 10.0 mi WSW 6.9 mph - N/A Thunderstorm Scattered Clouds
2:12 PM 91.4 °F 102.5 °F 75.2 °F 59% 29.97 in 1.0 mi South 10.4 mph - N/A Thunderstorm Haze
2:22 PM 87.8 °F 97.6 °F 75.2 °F 66% 29.97 in 10.0 mi SSE 15.0 mph 23.0 mph N/A Thunderstorm Mostly Cloudy
2:33 PM 87.8 °F 97.6 °F 75.2 °F 66% 29.97 in 10.0 mi SSE 16.1 mph 21.9 mph N/A Thunderstorm Mostly Cloudy
2:56 PM 84.0 °F 87.8 °F 69.1 °F 61% 29.98 in 10.0 mi SSE 12.7 mph 21.9 mph N/A Thunderstorm Mostly Cloudy
3:24 PM 84.2 °F 90.9 °F 73.4 °F 70% 29.97 in 10.0 mi SSE 15.0 mph 21.9 mph N/A Thunderstorm Scattered Clouds
3:28 PM 84.2 °F 90.9 °F 73.4 °F 70% 29.97 in 10.0 mi SSE 13.8 mph 21.9 mph N/A Thunderstorm Scattered Clouds
3:56 PM 81.0 °F 85.2 °F 72.0 °F 74% 29.97 in 7.0 mi SSE 15.0 mph 20.7 mph N/A Thunderstorm Clear
4:00 PM 80.6 °F 85.4 °F 73.4 °F 79% 29.97 in 7.0 mi SSE 12.7 mph 20.7 mph N/A Thunderstorm Thunderstorm
4:37 PM 82.4 °F 89.5 °F 75.2 °F 79% 29.94 in 10.0 mi SSE 10.4 mph - 0.00 in Thunderstorm Mostly Cloudy
4:56 PM 77.0 °F - 72.0 °F 84% 29.95 in 6.0 mi South 12.7 mph 21.9 mph N/A Rain , Thunderstorm Heavy Thunderstorms and Rain
5:35 PM 73.4 °F - - N/A% 30.02 in 8.0 mi Variable 4.6 mph - N/A Rain , Thunderstorm Thunderstorms and Rain
5:56 PM 73.0 °F - - N/A% 30.02 in 10.0 mi SSE 11.5 mph - N/A Thunderstorm Mostly Cloudy
6:06 PM 73.4 °F - - N/A% 30.01 in 10.0 mi SE 6.9 mph - N/A   Mostly Cloudy
6:56 PM 75.0 °F - - N/A% 29.98 in 10.0 mi SSE 4.6 mph - N/A   Clear
7:56 PM 73.9 °F - - N/A% 29.99 in 10.0 mi SSW 4.6 mph - N/A   Clear
8:56 PM - - - N/A% 30.00 in 10.0 mi SW 3.5 mph - N/A   Clear
9:56 PM 72.0 °F - - N/A% 30.03 in 10.0 mi SSW 3.5 mph - N/A   Clear
10:56 PM - - - N/A% 30.03 in 10.0 mi Calm Calm - N/A   Clear
11:56 PM - - - N/A% 30.03 in 10.0 mi Calm Calm - N/A   Clear